GEFSMW_con_prob3kmehi_222.txt.gz
EHI
50 53 52 53 63 70 69 67 65 63 55 43 34 28 23 17 13 20 33 31 19 12 10 10 12 11 9 8 9 8 7 7 7 6 4 5 7 8 7 7 8 9 9
61 63 64 64 69 74 73 71 71 67 57 44 35 30 27 22 17 26 37 34 22 14 11 11 12 14 13 11 10 10 7 6 7 6 4 4 6 7 6 7 8 10 12
72 73 75 76 77 77 77 76 77 72 60 48 39 35 34 27 26 37 44 39 27 18 13 12 13 16 16 15 14 12 10 7 7 7 7 6 6 6 6 6 8 12 14
75 77 79 80 80 79 80 81 82 77 66 55 46 42 39 32 31 41 47 42 31 22 16 13 15 15 15 15 16 16 15 13 10 9 10 11 10 9 9 8 9 11 12
73 76 80 81 81 80 82 85 86 81 71 61 53 47 43 38 36 41 47 45 36 26 18 15 17 17 14 14 18 20 20 19 15 11 11 13 15 16 14 10 9 9 9
66 74 82 85 83 81 84 88 88 84 76 66 58 51 47 45 42 43 46 44 39 31 23 21 26 27 20 19 23 26 27 25 22 18 14 15 18 19 17 13 10 8 8
57 69 81 86 85 84 86 90 92 89 82 73 64 58 54 51 47 44 42 38 35 35 33 33 38 39 32 29 32 34 34 31 29 27 23 21 20 18 16 15 12 9 8
50 62 76 84 86 87 90 93 95 93 88 81 73 66 61 55 49 46 41 34 30 34 40 44 46 46 42 38 39 40 39 36 34 33 32 29 24 20 16 15 14 9 6
44 55 70 80 84 88 92 95 95 94 90 86 80 73 67 61 55 51 44 35 32 35 43 49 51 51 48 43 43 43 41 40 39 39 39 36 29 22 18 18 16 12 8
36 47 63 74 79 84 90 93 93 91 89 86 81 76 72 67 61 57 49 41 39 43 47 50 54 55 52 48 48 45 43 42 42 44 45 42 33 25 22 22 20 17 14
29 40 55 67 74 79 85 90 91 90 87 84 79 75 73 70 65 63 58 52 51 53 54 53 53 53 51 51 51 47 43 42 42 44 45 43 37 31 27 24 22 21 20
30 40 52 61 70 78 82 86 90 91 87 82 77 73 72 71 69 68 66 63 61 62 60 56 52 48 46 48 50 46 41 39 40 41 42 40 38 37 31 25 22 21 22
39 47 57 64 73 80 83 84 87 87 84 79 75 72 71 70 70 69 69 68 67 65 62 57 53 47 43 44 45 41 37 36 36 36 36 35 35 35 32 26 21 20 19
49 58 67 72 78 83 85 84 84 82 79 76 74 73 71 71 71 69 67 67 67 65 61 57 52 46 42 41 41 37 34 33 33 33 33 32 30 30 29 26 20 17 16
53 61 69 74 79 82 82 81 80 78 77 76 74 72 72 73 72 69 65 64 63 61 58 55 50 43 37 34 35 34 33 33 34 34 34 31 27 24 22 19 16 15 14
51 57 64 71 76 77 74 74 76 77 76 75 72 70 71 71 70 66 61 59 58 56 54 52 47 41 32 23 22 25 29 32 32 33 33 30 25 20 17 13 9 9 10
54 57 62 66 70 69 67 67 71 74 74 72 67 64 64 63 63 60 56 55 56 54 53 51 47 41 30 17 11 14 22 27 28 28 29 26 22 19 16 11 7 5 5
58 60 61 62 63 64 64 64 65 68 68 66 62 59 57 57 57 54 52 54 56 55 53 51 46 39 29 17 10 10 15 21 23 23 25 23 20 17 15 12 9 8 7
56 56 58 59 62 63 63 61 59 59 60 59 55 54 53 52 52 50 51 54 55 53 48 45 42 36 26 16 9 8 13 18 19 20 21 20 17 14 11 9 9 9 9
50 50 52 58 62 61 59 58 55 53 54 54 52 51 51 49 47 47 50 52 52 48 42 40 39 36 27 16 8 7 12 16 17 17 17 15 12 9 7 6 7 7 7
44 44 46 52 56 55 53 52 52 51 50 49 50 50 49 45 43 44 48 49 47 44 41 40 39 36 29 19 10 7 10 14 15 15 13 10 6 4 2 3 4 4 4
38 38 39 41 44 46 44 43 44 46 45 45 46 46 44 40 38 41 44 45 43 41 39 38 36 34 29 20 11 5 5 9 13 13 10 6 2 1 0 1 1 1 1
34 33 31 30 31 33 33 33 34 36 37 39 40 38 36 32 31 34 37 39 39 37 35 33 32 31 28 21 13 6 2 3 7 8 5 2 0 0 0 0 0 0 0
30 28 25 23 21 21 22 25 27 28 28 30 32 30 26 23 24 26 28 30 31 30 28 27 26 26 25 21 15 10 5 3 4 3 1 0 0 0 0 0 0 0 0
25 23 20 18 15 14 15 18 22 24 23 22 22 21 18 18 19 20 19 19 19 18 17 17 18 18 18 15 11 9 7 5 4 2 1 1 1 0 0 0 0 0 0
21 19 17 15 12 10 11 15 18 20 19 16 16 16 15 16 19 19 15 12 10 9 7 8 10 11 10 8 5 4 4 4 3 2 2 2 1 0 0 0 0 0 0

GEFSMW_con_prob3kmehi_228.txt.gz
EHI
34 42 52 57 57 53 50 47 39 27 16 11 7 3 1 1 2 5 7 7 7 5 4 3 3 1 0 0 0 0 0 0 0 1 0 0 0 0 0 0 0 0 0
37 44 54 60 60 58 55 52 44 32 21 13 7 3 1 0 1 4 7 9 8 7 5 4 3 2 1 0 0 0 0 0 0 1 0 0 0 0 0 0 0 0 0
43 50 59 64 64 63 61 58 52 41 30 20 13 8 5 2 2 3 6 8 10 10 9 7 5 4 2 1 1 0 1 1 0 0 0 0 0 0 0 0 0 0 0
48 54 64 67 67 67 65 63 59 50 40 30 24 20 13 6 3 2 4 7 10 12 11 8 6 5 4 3 2 1 2 2 1 0 0 0 0 0 0 0 0 0 0
48 55 65 69 70 70 69 66 64 56 47 39 33 27 18 8 3 2 4 7 10 11 9 6 5 5 5 3 2 2 2 3 2 1 0 0 0 0 0 0 0 0 0
48 54 62 68 71 73 73 71 68 61 51 44 36 29 21 12 6 4 7 9 10 10 9 6 5 5 5 4 3 2 3 3 3 1 0 0 0 0 0 0 0 0 0
50 54 60 67 72 76 76 74 71 64 57 49 40 32 25 16 10 6 7 10 11 10 10 9 8 7 7 6 4 4 5 4 3 3 1 1 1 1 0 0 0 1 1
53 56 62 67 73 76 77 76 73 68 63 56 47 38 30 21 14 10 8 9 11 11 12 13 12 10 9 7 5 5 5 4 4 4 3 2 2 2 1 1 1 1 1
52 56 61 68 73 75 76 75 74 70 66 61 54 45 36 28 21 17 13 10 9 9 11 14 14 12 10 8 7 7 6 5 3 4 3 3 3 3 2 2 2 2 1
48 50 56 64 71 73 73 73 71 68 65 62 56 47 40 33 27 22 17 11 8 7 10 12 13 12 11 10 9 10 9 6 5 4 4 3 3 3 3 2 3 3 3
42 45 50 57 64 67 67 67 69 68 66 63 58 50 42 37 30 24 18 13 9 9 9 12 12 12 12 11 10 11 11 10 7 6 5 4 3 2 2 3 3 3 3
37 42 48 53 57 58 58 62 67 71 71 69 64 57 49 43 36 28 21 16 13 13 13 14 13 12 11 10 10 12 13 12 9 7 6 4 3 2 2 3 3 3 3
37 43 50 55 56 54 54 58 64 69 71 71 68 62 55 50 44 35 25 20 19 19 17 16 15 14 12 10 11 13 14 12 10 8 7 6 5 5 3 3 3 3 3
41 46 51 54 56 56 56 57 59 61 64 66 65 61 57 52 46 37 30 25 24 23 19 16 15 15 14 12 11 11 10 9 9 9 9 9 9 9 6 4 2 2 2
46 48 50 51 52 54 56 57 56 56 60 62 59 55 51 45 40 36 32 28 25 23 20 17 16 16 15 11 8 7 6 6 7 7 8 9 10 10 7 4 1 0 1
45 48 49 48 49 50 52 54 55 56 59 58 53 48 43 36 33 33 33 29 25 22 20 18 18 18 16 10 4 3 4 5 6 6 6 7 8 7 5 2 1 0 0
43 45 48 47 47 47 50 54 57 57 55 51 47 43 40 35 29 29 31 29 26 22 21 20 19 18 13 7 2 2 3 4 4 4 4 5 5 4 4 3 1 0 0
42 45 47 48 47 47 51 55 56 54 50 46 44 41 41 38 32 30 29 27 25 24 23 20 16 13 9 4 1 0 1 1 1 2 3 4 3 3 4 4 2 1 0
43 45 46 47 47 47 49 51 52 49 46 44 41 40 38 35 34 32 27 23 23 24 22 17 12 9 8 6 2 1 1 1 1 2 4 3 2 1 2 3 2 1 1
41 41 43 44 44 42 42 44 44 41 38 36 34 33 31 29 28 26 23 20 20 21 19 14 10 9 10 9 5 2 3 4 4 4 4 3 2 0 0 1 1 1 0
34 35 36 37 36 34 34 34 33 31 28 25 23 23 23 22 20 19 19 18 17 16 15 13 10 9 9 9 7 3 3 6 7 6 5 4 2 0 0 0 0 0 0
26 25 26 27 28 26 25 24 24 22 20 17 15 14 15 16 15 14 14 14 13 12 12 12 10 9 8 8 6 3 2 4 6 5 4 3 1 0 0 0 0 0 0
21 20 19 20 19 17 16 17 16 15 15 13 11 9 9 11 12 11 11 11 11 10 10 10 9 8 8 6 4 3 1 1 2 3 2 1 0 0 0 0 0 0 0
19 19 17 15 13 10 10 11 10 9 10 9 9 8 7 7 8 9 10 11 11 10 9 8 6 6 7 6 4 2 1 0 0 1 1 0 0 0 0 0 0 0 0
19 18 15 11 8 7 7 7 6 5 5 6 7 6 5 4 5 7 8 8 8 8 7 6 4 4 5 4 3 2 1 0 0 0 0 0 0 0 0 0 0 0 0
19 17 13 9 7 6 7 6 4 3 4 5 5 5 4 3 4 5 6 5 4 4 3 3 2 3 2 2 1 1 0 0 0 0 0 0 0 0 0 0 0 0 0

GEFSMW_con_prob3kmehi_234.txt.gz
EHI
1 3 7 10 10 10 12 12 9 5 3 3 4 3 2 1 0 0 0 0 0 0 1 0 0 0 0 0 0 0 0 0 0 0 0 0 0 0 0 0 0 0 0
2 5 9 13 16 17 18 18 15 10 7 5 5 3 1 0 0 0 0 0 0 0 1 0 0 0 0 0 0 0 0 0 0 0 0 0 0 0 0 0 0 0 0
4 7 13 19 23 25 26 25 21 17 12 9 6 4 2 1 0 0 0 0 0 0 0 0 0 0 0 0 0 0 0 0 0 0 0 0 0 0 0 0 0 0 0
4 10 18 24 29 30 31 28 25 21 17 13 10 9 6 2 0 0 0 0 0 0 0 0 0 0 0 0 0 0 0 0 0 0 0 0 0 0 0 0 0 0 0
4 9 18 26 31 33 33 32 29 24 21 18 16 14 9 3 0 0 0 0 0 0 0 0 0 1 0 0 0 0 0 0 0 0 0 0 0 0 0 0 0 0 0
5 8 16 25 31 34 36 36 32 27 24 22 20 17 13 6 2 0 0 0 0 0 0 0 0 0 0 1 1 0 0 0 1 1 1 0 0 0 0 0 0 0 0
9 12 18 27 35 38 41 41 38 32 29 27 24 20 15 10 5 1 0 0 0 0 0 0 0 0 0 1 1 1 0 1 2 2 1 0 0 0 0 0 0 0 0
15 18 24 32 40 44 47 49 47 41 35 31 29 22 16 12 9 4 1 0 0 0 0 0 0 0 0 1 2 1 1 2 2 2 1 0 1 1 0 0 0 0 0
17 21 27 34 41 46 48 51 53 48 41 36 32 27 21 16 13 9 4 2 0 0 0 0 0 1 1 2 2 1 1 2 2 1 0 1 2 2 1 1 1 0 0
17 21 27 33 39 44 44 46 49 49 44 41 38 34 27 21 18 14 10 6 2 0 0 0 1 2 2 2 2 1 1 2 3 2 1 1 2 3 3 2 2 1 0
17 20 25 30 38 42 41 39 41 44 45 45 43 40 32 25 20 17 13 10 6 2 1 2 3 3 3 3 3 2 2 3 4 4 2 1 1 2 2 2 2 1 0
15 18 22 29 37 41 38 34 35 38 43 47 46 42 34 26 20 16 13 10 8 5 4 4 4 4 4 4 3 2 2 4 5 4 2 1 1 1 1 1 1 1 0
14 16 20 26 33 36 35 32 32 34 40 46 45 39 33 27 22 17 12 9 7 6 5 6 6 5 5 5 4 3 4 5 4 2 1 1 2 2 1 1 2 2 2
14 16 17 21 26 30 31 32 32 32 34 39 38 34 33 29 23 17 13 9 7 7 7 7 7 7 7 7 8 8 7 5 3 1 1 2 3 2 1 2 4 5 4
14 14 15 17 19 22 27 29 31 30 30 31 31 30 33 31 22 16 14 12 9 8 8 8 8 8 8 8 9 9 7 5 3 2 2 3 2 1 1 2 4 5 4
16 15 14 14 15 18 22 25 26 27 28 29 28 28 31 28 21 16 15 14 12 9 9 10 10 8 7 6 6 6 6 4 3 3 2 1 0 0 0 1 2 3 3
18 16 14 14 15 17 19 21 22 25 29 32 32 30 29 26 20 16 14 14 13 11 10 10 10 9 7 5 3 3 4 3 2 2 1 0 0 0 0 0 0 1 1
19 18 16 14 14 17 20 23 25 27 31 34 35 33 29 26 21 16 13 12 12 12 11 10 8 8 7 4 1 1 1 1 1 1 1 1 1 0 0 0 0 0 0
19 20 19 17 17 19 23 28 30 30 31 31 32 31 30 27 21 15 11 10 10 10 10 8 6 6 5 2 0 0 0 1 1 1 3 3 2 0 0 0 0 0 0
21 23 23 21 21 22 25 27 28 28 27 25 25 26 26 23 17 11 8 8 8 6 5 4 3 3 2 1 0 0 0 1 2 3 4 3 1 0 0 0 0 0 0
24 25 25 23 20 21 22 22 22 21 19 19 19 20 20 18 13 9 7 7 5 3 2 2 2 1 1 1 0 0 0 1 2 4 4 2 0 0 0 0 0 0 0
26 26 25 22 19 18 19 18 14 12 12 13 14 14 15 14 11 8 7 6 5 4 3 3 2 2 2 2 1 0 0 1 2 3 3 2 0 0 0 0 0 0 0
25 24 22 20 17 14 14 11 7 6 7 8 9 9 11 10 8 6 5 5 5 6 6 5 4 4 4 4 3 1 1 1 2 3 2 1 0 0 0 0 0 0 0
21 19 17 16 12 7 6 4 2 3 5 6 6 6 7 7 5 3 3 5 6 6 7 7 7 7 7 6 4 3 2 2 2 2 1 0 0 0 0 0 0 0 0
15 14 13 11 6 3 2 1 1 3 4 4 4 4 5 5 5 3 3 4 5 5 5 6 6 7 6 5 3 3 2 2 2 1 0 0 0 0 0 0 0 0 0
13 13 12 8 5 3 2 1 1 2 3 3 3 4 4 4 4 3 2 2 2 2 2 3 3 3 3 2 1 1 1 1 1 0 0 0 0 0 0 0 0 0 0

GEFSMW_con_prob3kmehi_240.txt.gz
EHI
13 15 14 10 8 7 8 10 12 14 12 8 5 3 1 0 0 0 1 3 3 1 1 1 0 1 1 1 1 0 0 0 0 0 0 0 0 0 0 0 0 0 0
19 20 18 15 13 11 11 13 16 17 15 12 7 4 2 1 1 1 2 3 3 2 1 2 1 0 1 1 1 1 0 0 0 0 0 0 0 0 0 0 0 0 0
21 23 24 20 16 15 16 18 20 20 19 16 12 8 6 5 4 4 4 4 3 2 2 3 2 0 0 1 2 2 1 1 1 1 1 1 1 0 0 0 0 0 0
17 21 24 22 17 14 16 20 22 22 22 20 18 15 12 9 6 5 6 5 4 2 3 3 1 0 1 2 3 3 3 2 2 2 2 2 2 1 0 0 0 0 1
11 16 20 21 19 15 15 20 26 28 28 26 24 21 17 11 7 7 7 7 5 3 3 3 1 0 1 2 3 3 3 3 3 2 2 3 3 2 1 0 0 0 1
8 12 17 21 22 21 20 24 33 36 36 34 32 30 24 17 14 13 11 8 5 4 4 3 2 2 2 3 3 3 3 3 4 3 3 4 5 4 2 1 0 0 1
7 12 19 25 28 29 29 34 41 45 44 42 40 38 33 25 22 19 13 7 5 5 5 4 5 5 4 3 2 3 4 5 5 5 6 8 8 7 6 5 4 2 2
11 14 21 28 33 34 36 42 50 53 51 47 45 43 38 29 24 22 14 7 4 5 6 6 7 8 7 6 5 5 6 8 9 8 11 13 13 12 14 14 11 8 6
15 16 19 24 29 33 39 47 54 56 53 48 44 43 41 33 27 26 21 12 7 8 9 9 9 10 10 10 9 8 9 12 14 14 16 18 16 16 19 21 18 13 11
14 15 16 19 23 29 37 46 50 51 48 44 40 40 42 39 34 31 28 22 16 15 15 14 13 13 14 15 14 10 10 15 18 18 18 19 18 18 19 19 18 16 14
14 17 20 21 23 28 35 41 44 44 44 41 39 39 41 40 37 33 32 29 25 23 23 22 19 17 18 18 17 13 14 18 20 19 17 17 18 18 17 16 16 16 15
22 27 33 33 31 31 34 38 38 39 41 41 41 41 40 39 37 34 33 33 30 29 30 30 26 23 22 22 20 18 17 18 18 17 16 16 15 16 16 16 15 14 13
34 38 44 47 44 40 37 35 33 35 40 43 43 42 41 40 39 36 35 35 33 33 34 33 31 28 26 24 23 20 18 16 14 15 15 14 12 12 15 16 14 13 12
38 40 46 50 52 49 41 34 32 34 40 43 43 42 40 38 37 37 38 37 35 35 34 33 32 30 27 25 24 20 16 14 12 12 13 12 10 10 11 13 13 14 13
32 34 39 44 49 49 44 38 36 36 40 42 41 39 37 33 33 35 38 39 38 37 36 33 31 27 23 22 21 17 14 14 12 12 12 10 9 8 7 7 9 11 12
27 28 33 38 42 43 42 40 39 38 40 42 40 37 35 33 32 34 40 44 44 41 38 34 27 21 17 14 12 11 11 13 13 13 13 11 9 7 5 3 3 4 6
27 28 32 36 37 36 34 35 36 36 38 41 40 37 36 37 37 37 42 46 45 42 36 29 22 17 13 8 5 5 8 12 14 15 14 11 10 10 7 5 3 3 4
27 30 32 32 31 29 28 29 31 32 34 36 38 37 38 39 40 40 40 40 40 37 31 24 18 14 11 6 2 2 6 11 15 16 14 11 11 10 9 7 7 7 8
26 30 30 29 30 29 29 29 31 32 32 33 34 35 36 37 38 37 34 32 32 29 26 20 15 12 9 5 1 2 7 12 15 14 11 9 8 7 5 6 8 9 10
24 29 30 32 36 37 36 37 37 36 33 31 30 31 32 34 33 32 29 26 24 21 19 17 14 10 8 5 2 3 8 12 13 10 8 6 4 2 2 3 6 7 7
26 29 33 37 41 43 43 42 40 36 32 29 28 28 28 28 28 28 27 24 22 19 17 16 13 11 9 7 3 2 6 9 8 7 7 6 2 1 0 1 2 2 2
26 29 34 37 40 43 43 39 35 31 28 27 26 26 24 23 24 26 26 24 22 20 18 14 12 10 9 7 4 2 2 4 4 4 5 5 2 0 0 0 0 0 0
23 26 31 34 36 38 38 34 31 28 26 25 25 24 21 18 20 23 23 21 19 16 15 12 8 7 8 7 6 4 2 1 2 3 4 3 1 0 0 0 0 0 1
22 25 29 32 32 33 33 31 29 27 25 23 21 19 16 14 15 17 17 15 12 9 9 8 5 5 7 9 9 7 4 3 3 3 3 2 2 1 1 1 0 0 1
25 27 29 31 29 28 27 25 23 23 21 18 15 13 11 10 10 11 10 9 6 4 4 4 3 3 5 6 6 6 5 5 4 4 4 5 5 4 3 3 2 1 1
28 28 29 28 26 24 23 20 17 17 16 13 10 9 8 8 8 8 7 4 2 1 1 2 1 1 2 2 2 3 3 3 3 4 6 7 7 6 6 7 6 3 1

GEFSMW_con_prob3kmehi_246.txt.gz
EHI
29 30 26 26 36 49 53 44 35 32 26 20 19 19 18 18 15 16 20 20 15 11 8 7 9 7 6 5 5 5 6 6 3 1 2 6 12 17 19 18 18 14 9
41 42 39 38 46 55 57 50 43 38 31 24 20 17 17 19 19 20 25 25 19 14 10 8 7 5 5 8 10 10 9 6 3 2 2 3 7 11 13 17 18 15 13
55 57 55 54 57 62 63 60 58 52 42 33 25 20 20 22 24 31 35 32 26 20 15 12 9 6 6 11 15 16 14 10 6 5 4 3 2 4 6 9 13 18 23
60 63 64 63 62 63 66 69 71 68 56 43 33 28 27 28 31 39 43 40 33 26 23 20 17 12 9 12 14 16 15 13 10 9 9 8 6 6 4 3 6 15 23
60 64 67 67 64 61 66 74 79 78 69 54 43 37 34 33 36 42 46 45 39 34 32 30 26 22 18 16 15 14 16 15 13 12 13 15 16 14 9 4 4 8 12
59 64 69 72 70 65 68 77 82 81 74 63 53 47 43 39 41 46 50 47 42 41 40 38 37 35 29 25 23 21 20 19 16 15 16 19 20 19 14 8 4 4 6
53 60 69 77 79 75 75 80 83 81 75 68 63 59 55 50 49 50 50 46 42 42 45 46 47 44 37 33 32 30 26 23 21 19 20 20 20 19 17 11 6 4 5
43 52 66 77 82 82 80 83 85 83 78 74 71 68 65 60 55 51 47 44 40 40 45 52 54 49 42 38 38 35 30 26 24 22 22 22 20 20 18 13 8 6 5
32 43 60 74 81 83 82 84 86 85 82 79 75 70 67 64 58 53 48 43 40 40 45 53 56 50 43 40 39 36 32 28 26 22 22 21 20 19 19 16 13 10 8
25 35 51 66 75 78 81 82 84 84 82 80 74 66 64 64 60 54 50 46 41 41 45 51 51 46 41 40 39 36 30 28 27 24 22 21 20 17 16 16 16 14 12
25 33 47 60 68 71 75 79 81 81 80 80 74 65 60 60 58 55 53 51 46 44 46 48 45 41 39 41 40 35 28 26 25 22 20 19 18 16 14 11 13 14 15
35 41 50 59 65 68 72 76 78 78 78 76 72 64 59 56 54 54 54 54 50 47 47 45 41 39 40 41 40 33 26 23 22 18 17 16 14 14 13 8 8 10 12
46 50 56 62 68 70 72 74 74 74 73 70 67 62 58 54 52 51 50 51 51 50 48 44 41 41 41 40 37 30 24 24 22 18 17 16 13 11 11 8 6 7 8
49 54 62 68 71 72 73 71 67 66 66 65 64 62 59 55 53 50 47 47 50 51 48 44 43 44 40 36 32 27 24 26 24 19 17 15 12 9 9 8 8 8 10
48 54 63 70 72 72 71 66 60 58 61 63 64 63 61 57 54 51 49 48 49 49 47 45 44 42 34 26 25 25 24 22 21 17 15 13 9 7 5 6 7 9 11
47 53 60 64 68 68 65 61 57 57 61 63 61 61 60 58 56 54 52 50 48 46 46 46 44 37 25 16 14 17 18 17 17 17 15 12 8 5 3 3 3 5 7
46 51 55 55 56 57 57 57 57 58 60 58 55 56 57 56 55 54 52 50 47 46 46 46 42 33 21 10 5 6 10 12 15 17 16 12 7 4 2 1 1 1 2
40 44 47 45 44 46 50 52 53 55 54 51 51 51 51 51 50 49 48 47 47 46 45 42 38 31 20 9 2 1 5 10 12 13 11 8 5 2 1 1 1 2 2
34 35 37 38 40 44 49 49 49 50 49 47 48 48 47 47 45 43 43 42 41 40 37 34 30 25 18 9 2 1 6 11 11 9 7 4 2 1 1 2 3 3 3
32 33 35 38 43 48 51 50 48 49 47 46 46 45 43 43 41 40 38 36 33 31 28 25 22 18 13 8 3 3 7 11 12 10 7 3 1 1 1 4 6 5 4
36 37 38 42 48 51 51 50 48 47 46 45 43 40 37 36 36 35 33 31 28 25 22 20 17 14 11 8 5 3 6 9 11 11 8 5 2 1 1 3 6 5 3
41 41 42 46 50 50 48 47 45 44 43 41 37 33 30 28 28 29 28 26 25 22 19 17 16 14 12 9 6 2 2 5 7 9 7 5 2 1 0 1 2 2 1
45 44 45 47 49 48 45 42 41 40 39 36 32 28 25 22 21 22 22 20 18 15 13 14 14 13 11 9 6 3 1 1 3 4 4 2 1 0 0 0 0 0 0
43 43 44 46 47 45 42 39 37 37 35 33 29 25 20 17 15 15 14 12 10 8 7 8 9 9 9 7 5 4 2 1 1 2 2 2 1 0 0 0 0 0 0
36 37 39 41 42 40 39 37 36 35 35 32 27 21 14 11 10 9 7 5 4 3 3 4 4 5 5 4 3 3 2 2 2 3 4 4 3 2 1 1 2 2 1
33 33 35 37 37 36 36 36 36 35 35 32 25 16 9 8 7 6 4 2 2 2 3 3 3 3 2 1 1 1 1 1 2 3 5 6 5 4 3 2 3 3 3

GEFSMW_con_prob3kmehi_252.txt.gz
EHI
22 28 37 42 39 33 31 27 21 13 6 2 1 3 4 5 4 3 3 3 4 4 3 1 0 1 0 0 0 0 0 0 0 0 0 0 0 0 0 0 0 0 0
23 28 37 43 42 38 35 30 22 16 9 4 2 3 4 4 3 2 2 3 5 6 6 4 3 2 1 1 1 0 0 0 0 0 0 0 0 0 0 0 0 0 0
26 31 39 46 46 44 41 34 25 19 13 8 6 6 6 5 3 2 2 3 5 8 10 9 6 4 3 3 2 1 1 1 0 0 0 0 0 0 0 0 0 0 0
29 33 40 46 48 48 46 41 34 27 20 15 13 11 9 7 5 3 4 4 5 9 11 10 8 6 6 4 3 3 2 1 0 0 0 0 0 0 0 0 0 0 0
28 31 36 42 46 49 50 50 46 38 29 24 20 17 14 10 7 5 5 5 7 10 13 12 8 7 7 6 4 3 3 2 1 1 1 0 0 0 0 0 0 0 0
31 31 34 42 48 52 55 58 56 50 40 33 29 25 21 15 11 9 8 9 9 11 13 13 9 7 7 6 4 3 3 3 2 2 2 1 0 1 1 0 0 0 0
39 39 42 48 53 56 60 63 63 59 51 43 39 33 26 20 16 15 14 13 12 11 11 11 10 8 7 6 4 4 3 3 3 3 3 2 1 2 2 1 0 0 0
49 52 56 58 58 60 62 65 66 64 59 52 46 41 32 25 22 19 17 15 13 11 8 8 9 9 8 6 5 5 4 4 3 3 3 2 1 2 2 1 0 0 0
53 59 65 65 62 60 62 65 67 66 63 56 51 46 40 34 29 23 19 17 14 12 9 7 8 10 9 7 6 5 5 5 4 2 1 1 0 1 1 0 0 0 0
48 55 62 64 63 61 61 64 67 66 63 59 54 49 44 39 34 29 25 21 16 12 10 9 9 10 9 8 6 5 4 4 3 1 0 0 0 0 0 0 0 0 0
43 49 56 60 64 65 64 64 66 66 64 61 56 51 44 39 34 30 28 24 18 14 13 12 13 13 12 9 6 4 3 2 1 0 0 0 0 0 0 0 0 0 0
45 50 55 60 64 67 67 66 66 65 63 60 57 51 45 39 33 29 27 25 21 18 16 16 16 17 15 10 6 5 2 1 1 1 0 0 0 0 0 0 0 0 0
46 49 53 58 62 63 63 65 65 62 60 58 55 50 46 41 34 29 29 29 26 21 18 19 19 19 16 10 6 4 2 1 2 2 1 0 0 0 0 0 0 0 0
44 45 48 52 56 56 56 59 61 59 55 54 53 49 46 43 37 32 31 30 28 23 20 20 20 19 15 9 6 5 4 2 2 2 1 0 1 0 0 0 0 0 0
44 43 43 46 48 48 49 51 54 52 50 50 50 48 45 44 41 36 33 31 30 26 23 22 21 19 15 11 7 6 5 4 2 1 0 0 0 0 0 0 0 0 0
44 42 40 40 41 42 44 46 46 44 45 46 46 45 44 43 41 37 35 33 30 26 23 21 20 18 14 11 7 5 5 4 3 2 1 1 1 0 0 0 0 0 0
43 41 39 37 37 39 42 44 42 41 43 44 43 42 41 40 38 35 33 30 27 22 19 17 16 14 11 7 4 3 3 3 3 4 4 3 1 1 1 1 0 0 0
43 42 40 36 35 36 40 42 42 42 43 44 42 38 37 36 36 35 31 26 21 17 15 13 11 9 7 4 3 1 1 1 1 3 3 2 1 0 1 1 0 0 0
45 43 40 37 34 34 37 41 42 42 41 38 35 34 34 34 35 34 30 23 18 15 13 12 10 7 5 4 3 1 0 0 0 1 1 1 0 0 0 0 0 0 0
43 42 39 37 34 33 36 40 40 38 35 30 27 30 32 33 33 30 25 19 17 15 13 11 9 8 7 5 3 1 2 2 1 1 1 1 0 0 0 0 0 0 0
41 41 40 38 35 35 37 40 38 34 30 27 27 29 31 31 30 25 19 14 14 14 12 9 7 6 6 4 2 1 2 3 2 2 2 1 0 0 0 0 0 0 0
39 39 39 38 37 38 39 37 34 30 28 28 29 29 28 26 24 20 14 11 11 11 10 6 4 4 3 2 0 0 1 1 1 1 1 1 0 0 0 0 0 0 0
35 35 36 36 37 37 35 31 28 28 27 27 26 25 22 18 15 12 10 8 8 8 7 5 3 3 2 0 0 0 0 0 0 0 0 0 0 0 0 0 0 0 0
29 30 32 33 32 31 29 25 24 25 25 23 22 19 14 10 8 6 5 5 5 5 4 4 3 3 1 0 1 1 0 0 0 0 0 0 0 0 0 0 0 0 0
26 28 29 27 25 25 24 22 21 23 22 20 18 12 7 5 4 3 3 3 3 3 3 3 3 2 1 0 1 1 0 0 0 0 0 0 0 0 0 0 0 0 0
26 25 25 22 21 22 23 21 20 20 20 19 14 9 5 3 3 3 3 3 3 3 3 3 3 1 0 0 1 1 0 0 0 0 0 0 0 0 0 0 0 0 0

GEFSMW_con_prob3kmehi_258.txt.gz
EHI
4 3 2 4 8 8 8 7 5 3 1 1 0 0 0 0 0 0 0 0 0 0 0 0 0 0 0 0 0 0 0 0 0 0 0 0 0 0 0 0 0 0 0
6 5 5 7 10 10 9 8 6 2 1 1 0 0 0 0 1 1 1 0 0 0 0 0 0 0 0 0 0 0 0 0 0 0 0 0 0 0 0 0 0 0 0
6 7 9 12 13 11 10 10 6 2 1 1 0 0 0 1 2 2 1 0 0 1 1 0 0 0 0 0 0 0 0 0 0 0 0 0 0 0 0 0 0 0 0
7 8 12 15 14 12 11 9 6 2 0 0 0 0 0 2 3 2 2 1 1 1 2 1 0 0 0 0 0 0 0 0 0 0 0 0 0 0 0 0 0 0 0
7 9 13 15 14 12 12 11 7 3 1 1 0 0 1 2 2 2 2 1 1 1 1 1 0 0 0 0 0 0 0 0 0 0 0 0 0 0 0 0 0 0 0
8 9 12 14 14 13 14 13 9 4 3 3 1 1 1 2 1 1 1 1 0 0 0 0 0 0 0 0 0 0 0 0 0 0 1 0 0 0 0 0 0 0 0
9 9 10 13 16 17 18 16 10 6 4 4 3 1 1 2 1 1 0 0 0 0 0 0 0 0 0 0 0 0 1 1 0 0 0 0 0 0 0 0 0 0 0
11 10 10 12 17 22 23 19 13 10 7 5 4 3 1 1 1 0 0 0 0 0 0 0 0 0 0 0 0 0 1 1 2 1 0 0 0 0 0 0 0 1 1
12 11 9 11 16 23 25 22 17 14 12 9 7 5 3 2 1 1 0 1 1 1 0 0 0 0 0 0 0 1 1 2 2 1 0 0 1 1 0 0 0 1 2
12 10 8 10 15 22 27 25 20 18 17 16 13 10 8 6 5 4 3 2 1 1 1 1 0 0 0 0 1 2 2 1 1 1 0 0 1 1 0 0 0 1 2
9 8 7 9 13 20 27 27 24 22 22 22 21 19 14 10 9 8 6 4 2 3 3 2 1 0 0 1 2 2 2 1 0 0 0 0 1 1 1 1 0 0 1
6 7 8 10 13 19 27 29 26 25 25 26 27 25 20 14 10 9 8 7 6 6 6 4 2 1 1 2 2 2 1 1 1 1 1 1 2 2 2 1 0 0 0
7 7 10 12 14 19 25 28 28 27 27 29 30 27 23 18 14 11 11 11 10 9 8 7 5 3 3 3 3 3 2 2 2 2 2 3 3 3 2 1 0 0 0
8 8 10 13 16 18 21 25 27 28 30 32 31 27 23 22 18 13 12 12 12 11 9 8 6 4 4 4 3 3 3 3 3 3 3 2 2 2 1 0 0 0 0
7 9 11 14 17 18 17 19 25 29 32 33 30 25 23 22 18 12 10 11 12 11 9 8 6 5 5 4 3 3 3 3 3 2 1 1 1 1 0 0 0 0 1
6 9 13 15 18 19 17 18 24 30 33 34 29 24 22 22 17 11 9 10 10 9 8 7 5 5 5 3 2 2 3 3 2 1 1 1 0 0 0 0 0 0 1
8 11 15 16 18 20 20 20 24 30 34 34 29 24 23 21 17 13 12 11 9 8 7 5 4 4 4 2 1 1 1 2 1 0 0 0 0 1 2 1 1 1 1
11 14 16 18 20 23 23 24 26 31 34 33 27 22 21 20 17 16 15 13 10 8 7 5 5 4 3 1 0 0 0 0 0 0 0 0 1 2 2 2 2 2 2
12 16 19 21 23 25 26 26 28 31 32 28 23 20 19 18 18 17 16 13 10 8 7 6 6 5 3 1 0 0 0 0 0 0 0 0 1 2 2 2 3 3 3
15 18 23 25 24 25 26 25 24 26 25 21 19 18 19 19 19 18 15 11 8 7 6 6 5 4 3 2 1 0 0 0 0 0 0 0 1 1 0 1 2 2 2
20 22 24 25 24 24 26 24 21 20 19 17 17 17 19 19 18 16 14 11 8 6 5 4 3 3 3 3 1 0 0 0 0 0 0 0 0 0 0 0 1 1 1
23 23 23 24 24 25 28 27 23 20 18 17 17 16 16 17 17 14 11 10 8 6 4 3 3 3 3 3 2 0 0 0 0 0 0 0 0 0 0 0 0 0 0
22 22 23 23 25 26 27 27 23 20 18 17 16 14 12 13 13 11 9 8 7 5 4 3 3 3 3 3 2 0 0 0 0 0 0 0 0 0 0 0 0 0 0
20 22 23 23 24 25 24 22 20 18 16 14 12 10 8 9 9 8 6 5 4 4 3 3 3 3 3 3 2 1 0 0 0 0 0 0 0 0 0 0 0 0 0
20 21 22 22 22 22 21 18 16 14 12 10 9 7 6 6 6 6 4 3 3 3 3 3 3 3 3 3 2 1 0 0 0 0 0 0 0 0 0 0 0 0 0
20 21 21 21 21 21 19 16 14 11 8 7 7 7 7 7 6 6 4 3 3 3 3 3 3 3 3 3 2 1 0 0 0 0 0 0 0 0 0 0 0 0 0

GEFSMW_con_prob3kmehi_264.txt.gz
EHI
5 4 2 1 4 8 11 11 11 13 12 7 4 4 3 1 0 1 3 3 3 2 1 0 0 0 1 0 0 0 0 0 0 0 0 0 0 0 1 1 2 2 2
7 7 4 3 6 10 12 13 13 14 13 7 4 4 3 1 1 2 3 4 4 3 1 0 0 0 1 0 0 0 0 0 0 0 0 0 0 0 1 1 1 1 1
9 9 7 6 7 10 13 14 16 17 15 10 5 4 3 3 3 4 5 4 4 3 2 1 0 1 1 1 1 1 1 0 0 1 0 0 0 0 1 1 1 1 0
8 8 6 5 7 9 12 17 21 23 21 15 9 7 5 4 5 6 6 5 3 3 4 2 1 1 2 4 4 4 3 2 1 1 1 0 0 0 0 0 1 1 1
6 5 4 4 6 8 12 19 27 30 28 22 18 13 7 5 6 7 7 4 3 4 5 4 3 2 3 4 5 5 5 4 3 3 3 1 1 0 0 0 1 1 0
7 5 4 6 9 10 13 22 32 36 34 31 26 19 12 7 7 7 6 4 2 4 5 5 6 5 4 4 4 5 5 5 6 8 6 4 3 2 2 1 0 0 0
9 8 7 10 14 16 19 28 39 43 41 38 32 25 17 11 8 7 5 3 2 3 4 5 7 7 5 5 6 7 5 5 8 10 9 7 6 5 4 2 1 0 0
11 11 12 16 18 22 26 33 42 45 44 42 38 32 24 12 7 7 6 4 3 3 4 7 8 7 7 8 10 9 6 5 6 7 9 11 9 7 6 5 2 0 0
12 13 17 19 19 22 27 34 39 43 43 41 38 35 27 15 9 9 8 6 5 5 7 10 11 11 11 13 14 11 7 5 4 4 9 11 7 5 7 8 5 2 2
12 14 17 18 16 18 26 33 38 42 41 37 34 31 28 23 17 14 11 9 9 11 12 14 15 15 15 17 16 13 10 7 5 6 9 9 5 4 8 10 8 5 4
11 13 16 16 14 15 24 33 40 43 42 38 33 29 28 29 26 20 17 15 15 17 18 17 17 16 17 20 19 16 13 11 9 9 9 8 6 6 9 11 9 6 5
10 12 17 19 18 18 23 31 38 42 44 43 38 33 32 34 33 28 26 23 21 19 19 18 17 18 19 22 21 17 15 14 13 11 10 8 8 10 11 12 9 6 4
12 15 20 25 26 27 27 30 35 40 44 45 43 41 40 40 38 35 30 26 22 19 16 15 16 18 20 21 20 17 16 17 15 13 10 9 10 12 12 11 10 7 4
17 19 23 29 33 35 34 35 37 40 44 45 46 47 45 43 40 35 29 24 22 18 15 14 15 16 17 18 18 17 17 17 16 13 11 10 10 10 11 10 9 8 6
22 23 27 30 35 37 39 39 41 43 44 44 45 46 45 43 39 33 28 25 23 20 17 15 14 15 15 15 16 16 16 16 14 13 11 9 7 6 6 6 6 6 6
25 27 29 31 36 41 43 42 42 45 45 42 43 45 45 43 39 33 29 28 27 24 20 16 14 14 14 12 10 10 11 12 13 13 12 9 6 4 3 2 2 3 4
26 29 30 32 38 43 45 45 44 44 44 43 43 43 43 42 39 34 31 30 29 26 21 17 14 13 11 7 4 3 6 9 12 13 13 11 7 5 4 2 1 2 3
28 30 31 35 40 43 44 45 44 43 43 42 42 41 41 40 38 36 33 32 31 26 21 17 15 13 9 4 1 1 6 9 11 11 12 12 9 6 4 3 3 4 4
29 31 33 38 43 43 42 43 44 43 42 40 40 40 39 37 36 36 35 33 30 26 21 18 18 15 9 3 1 2 6 9 9 8 9 9 7 4 2 2 4 5 5
31 33 37 44 48 47 43 40 41 42 41 39 40 41 40 37 36 37 36 33 30 26 22 19 18 14 8 3 1 1 5 7 7 6 6 5 4 2 1 2 3 4 4
35 37 42 47 50 49 44 40 39 40 40 40 41 41 40 37 37 38 37 32 29 25 21 17 13 10 6 3 1 1 3 4 4 4 3 3 2 1 0 1 2 2 2
41 42 45 48 48 47 45 43 40 39 40 41 42 41 38 36 36 37 35 31 27 22 17 13 9 6 5 4 2 1 1 1 3 3 3 3 1 0 0 0 1 1 0
43 44 46 47 46 44 45 45 42 40 40 39 39 39 36 33 33 33 30 27 23 18 14 12 9 6 6 5 3 1 0 1 2 3 3 2 1 0 0 0 0 0 1
44 44 46 46 44 42 42 42 39 37 37 35 34 35 33 29 28 27 25 21 17 13 11 11 11 9 7 5 4 2 1 1 2 3 3 2 1 1 1 1 1 1 2
43 43 43 43 42 39 38 36 33 31 30 29 28 30 28 25 23 21 18 13 10 8 7 9 10 9 7 5 3 3 3 2 3 3 3 3 2 2 2 2 2 3 3
43 42 43 42 39 36 34 33 30 27 27 26 26 26 24 22 21 18 12 7 5 4 4 6 7 6 5 4 3 3 3 3 3 3 3 3 3 3 3 3 3 3 3

GEFSMW_con_prob3kmehi_270.txt.gz
EHI
21 24 23 26 36 44 47 42 35 32 29 28 27 25 21 19 20 22 22 19 15 11 10 11 13 12 10 7 5 4 4 4 3 1 1 3 6 9 14 15 13 15 19
24 29 30 31 38 47 50 47 42 37 32 30 27 23 21 20 20 23 25 24 19 15 13 16 18 16 15 13 11 8 6 4 3 1 1 2 3 4 7 10 11 14 18
28 35 40 40 43 50 53 52 51 47 41 36 28 24 24 22 22 26 31 30 25 19 19 22 23 22 21 18 15 13 10 8 4 3 4 4 2 1 1 4 7 13 18
33 39 46 48 47 49 53 57 59 56 51 44 35 29 27 26 26 30 33 33 28 24 23 24 26 27 23 18 15 14 15 12 7 5 7 8 6 2 1 1 3 8 14
32 39 49 53 49 46 52 62 67 63 58 52 43 35 29 26 27 30 34 34 32 28 26 27 29 29 24 18 14 13 15 15 10 6 6 8 8 5 3 1 0 3 6
29 37 51 57 51 45 52 64 71 70 65 58 52 46 36 28 27 30 34 34 33 34 33 33 34 32 27 22 16 14 15 15 13 8 6 6 7 7 5 2 0 1 3
28 38 52 60 56 52 57 66 73 74 71 65 61 58 51 40 33 32 31 29 29 33 36 37 38 38 33 27 22 20 18 18 16 12 9 7 6 8 8 4 1 1 3
30 39 51 60 61 59 62 68 73 76 74 69 66 64 59 49 40 35 29 25 23 27 33 37 40 40 35 30 28 26 23 21 18 15 13 10 7 9 10 6 3 2 2
30 38 48 58 63 63 64 67 72 75 75 71 67 64 57 49 44 39 32 27 25 25 30 37 38 35 30 28 29 29 25 22 19 17 16 14 10 9 11 10 7 4 3
30 35 45 54 60 62 65 67 68 71 72 70 64 57 53 50 46 42 37 34 32 30 31 35 34 30 26 26 26 26 25 22 20 18 18 16 11 10 12 13 10 6 4
26 31 42 50 55 58 63 65 66 67 67 64 59 56 53 52 50 45 43 44 42 39 35 33 30 28 27 26 25 24 23 22 20 19 18 16 13 12 13 12 10 6 4
22 27 39 47 50 52 57 60 63 64 62 59 58 57 56 55 54 51 50 52 51 46 38 33 30 28 27 27 26 23 21 20 20 18 16 15 14 14 14 11 8 6 4
24 29 39 48 49 49 53 55 58 61 59 57 58 59 58 57 56 56 56 55 51 46 39 34 31 28 26 25 25 23 21 20 19 17 16 15 15 15 14 11 9 7 4
31 34 44 52 52 51 53 55 55 57 58 57 58 59 57 55 57 58 56 53 48 42 38 34 30 26 23 22 22 21 20 20 19 18 16 14 14 13 12 11 10 7 5
33 39 48 54 55 56 56 55 54 56 58 58 58 57 55 54 55 56 53 51 47 42 39 35 28 22 18 17 17 17 17 17 17 16 13 11 10 9 7 7 7 6 6
31 39 49 55 58 58 56 55 55 58 60 58 56 54 53 52 52 51 51 51 48 44 41 36 29 21 15 11 12 13 13 13 14 13 11 9 8 6 4 3 2 3 4
31 39 48 54 57 57 56 55 57 60 59 56 54 51 50 49 49 48 49 51 50 45 40 35 29 23 15 8 6 9 11 13 13 14 13 10 7 6 5 3 1 1 1
37 42 46 49 53 56 58 58 58 58 56 54 53 50 48 49 48 48 49 51 49 43 38 32 28 24 16 7 3 7 12 15 15 16 14 11 6 5 5 5 4 3 2
42 44 46 48 52 56 58 58 57 55 54 53 53 51 50 49 49 49 50 50 47 41 35 31 28 25 17 7 2 6 13 18 17 15 12 8 5 3 4 5 6 5 4
45 46 48 51 55 57 57 56 54 53 51 52 52 52 51 49 49 51 51 49 45 40 34 29 26 24 16 6 1 5 13 18 17 12 7 4 3 3 3 4 5 5 4
47 48 51 54 56 57 56 54 52 51 51 52 52 51 50 48 49 52 51 47 43 39 33 26 23 20 13 5 1 3 9 14 13 9 4 3 3 2 2 3 4 4 4
47 49 52 54 56 58 58 56 54 54 55 56 54 52 49 47 47 48 48 45 41 36 31 24 20 17 10 4 1 1 3 6 7 5 3 2 2 1 1 1 2 3 3
46 47 51 54 55 56 57 57 57 57 58 59 56 52 48 45 43 43 43 41 37 32 26 22 19 17 11 5 2 1 0 1 3 2 1 1 1 0 0 0 1 1 2
45 47 50 51 51 51 52 55 56 56 57 55 51 47 43 40 38 37 35 33 30 27 23 20 18 16 12 6 2 1 1 1 1 1 1 1 0 0 0 0 1 1 2
47 49 51 49 46 46 49 52 53 54 51 46 40 37 34 32 31 28 24 20 18 18 17 16 14 12 9 4 1 1 2 2 2 2 2 1 0 0 0 1 2 3 3
49 51 52 49 46 46 48 51 52 51 46 40 34 30 27 26 25 21 15 12 10 9 9 10 10 9 5 2 1 1 1 1 1 1 1 1 0 0 1 2 3 3 3

GEFSMW_con_prob3kmehi_276.txt.gz
EHI
20 21 21 18 17 17 15 13 11 9 5 3 4 4 3 2 1 1 1 0 0 0 1 2 2 1 0 0 0 0 0 0 0 0 0 0 0 0 0 0 0 0 0
22 25 25 22 20 21 19 15 12 8 5 3 3 4 3 2 1 1 1 0 0 0 0 1 1 0 0 0 0 0 0 0 0 0 0 0 0 0 0 0 0 0 0
25 27 28 26 26 26 25 21 14 8 5 4 4 4 2 1 0 0 0 0 0 0 0 0 0 0 0 0 0 0 0 0 0 0 0 0 0 0 0 0 0 0 0
26 27 28 30 32 32 29 25 20 13 9 8 7 4 2 1 0 0 0 0 0 0 0 0 0 0 0 0 0 0 1 1 0 0 0 0 0 0 0 0 0 0 0
25 25 25 29 35 37 35 31 28 24 18 14 10 5 3 2 1 1 1 0 0 0 0 0 1 1 1 2 1 2 3 3 1 0 0 0 0 0 0 0 0 0 0
23 22 22 25 32 39 42 42 41 36 29 22 14 8 4 3 3 3 2 1 0 0 0 0 1 3 4 4 3 3 4 4 2 1 0 0 0 0 0 0 0 0 0
23 22 23 27 32 38 44 50 52 46 37 26 18 12 7 4 4 4 3 2 1 1 1 2 3 6 8 6 5 3 3 3 3 2 0 0 0 0 0 0 0 0 0
26 26 28 32 34 37 43 51 54 50 42 32 22 15 10 6 5 5 5 4 3 3 3 4 6 9 10 9 6 4 3 4 3 2 0 0 0 0 1 1 1 1 0
30 31 32 34 36 37 41 47 50 48 45 39 28 18 12 9 8 8 7 5 4 3 3 5 8 10 10 9 7 4 4 4 4 2 1 0 1 1 2 2 2 2 1
29 31 32 34 35 38 41 44 46 45 45 43 36 23 15 14 14 13 11 8 5 3 3 5 7 9 9 8 6 5 4 4 3 2 1 0 1 2 3 3 3 3 3
23 27 31 32 33 35 40 45 47 46 45 45 40 30 23 22 23 22 17 11 7 5 5 6 7 9 9 7 5 3 3 3 2 1 0 0 1 1 3 3 3 3 3
19 24 29 29 28 30 37 45 48 45 43 43 41 38 35 33 33 30 22 15 10 7 7 9 10 11 10 7 5 3 3 3 2 1 0 0 0 1 2 3 3 3 3
16 21 27 28 25 24 30 38 42 42 40 39 40 42 44 42 38 33 25 18 15 11 10 12 13 13 12 9 7 7 5 4 2 1 0 0 0 0 1 1 3 3 3
14 19 25 26 23 21 24 30 35 37 37 36 38 42 45 43 38 31 25 22 20 17 15 14 13 13 12 10 10 10 8 4 2 0 0 0 0 0 0 1 2 2 2
14 16 20 23 22 22 25 29 33 35 35 35 37 39 41 41 37 30 26 26 23 20 19 15 11 10 9 8 9 9 8 5 2 1 0 0 0 0 0 0 1 1 1
12 13 17 22 24 25 29 32 35 35 33 34 36 36 38 39 37 32 29 28 25 21 19 15 11 9 7 5 6 7 7 5 3 1 1 0 0 1 1 0 0 0 0
12 14 19 23 26 27 29 33 36 36 33 32 32 32 35 36 35 33 32 30 26 22 19 16 12 9 7 5 4 5 6 5 4 3 2 1 1 2 2 1 0 0 0
15 18 22 25 26 28 30 32 35 35 32 31 30 30 32 33 34 34 32 28 25 22 20 18 15 11 9 6 4 4 6 6 5 4 3 3 3 3 3 2 1 0 0
21 23 26 28 28 30 32 34 35 34 33 34 33 32 33 33 34 34 31 27 24 22 20 19 18 15 12 7 3 4 7 8 7 4 3 3 3 3 3 3 2 1 0
27 29 32 31 31 31 32 32 32 31 32 34 33 33 35 35 34 32 28 26 24 21 18 18 18 16 12 7 3 4 7 8 6 3 2 3 3 2 2 2 3 2 1
33 35 37 36 33 31 29 29 28 27 28 30 31 32 33 33 32 28 25 25 23 19 16 16 15 13 9 5 2 2 5 6 4 3 2 2 1 1 0 1 2 1 0
37 38 39 37 34 31 28 26 24 23 26 29 30 30 30 30 28 23 20 22 21 17 15 13 11 9 6 2 1 1 2 3 3 3 1 1 0 0 0 0 0 0 0
36 37 36 34 32 29 25 24 23 24 27 30 30 30 28 27 24 19 17 18 17 15 13 10 8 6 4 1 0 0 0 1 2 2 1 0 0 0 0 0 0 0 0
31 32 31 30 28 27 25 24 26 28 30 31 30 28 27 25 21 17 15 15 14 11 10 9 7 6 4 2 1 0 0 0 1 1 0 0 0 0 0 0 0 0 0
24 25 26 25 26 27 27 27 27 29 30 29 27 24 22 20 15 13 12 10 9 7 7 6 6 6 5 3 1 0 0 0 0 0 0 0 0 0 0 0 0 0 0
19 20 21 22 24 27 27 26 26 27 28 27 24 21 18 15 11 11 9 7 5 5 4 4 5 5 4 3 1 0 0 0 0 0 0 0 0 0 0 0 0 0 0

GEFSMW_con_prob3kmehi_282.txt.gz
EHI
4 2 1 0 0 0 1 0 0 0 0 0 0 0 0 0 0 0 0 0 0 0 0 0 0 0 0 0 0 0 0 0 0 0 0 0 0 0 0 0 0 0 0
3 2 1 1 1 1 1 0 0 0 0 0 0 0 0 0 0 0 0 0 0 0 0 0 0 0 0 0 0 0 0 0 0 0 0 0 0 0 0 0 0 0 0
2 1 2 3 2 1 1 0 0 1 1 1 0 0 0 0 0 0 0 0 0 0 0 0 0 0 0 0 0 0 0 0 0 0 0 0 0 0 0 0 0 0 0
1 1 3 4 4 3 1 1 1 1 2 1 0 0 0 0 0 0 0 0 0 0 0 0 0 0 0 0 0 1 0 0 0 0 0 0 0 0 0 0 0 0 0
2 1 3 5 5 5 4 3 3 2 2 2 1 1 1 0 0 0 0 0 0 0 0 0 0 0 0 0 0 0 0 0 0 0 0 0 0 0 0 0 0 0 0
3 3 3 5 7 7 7 6 5 3 2 3 3 3 2 1 0 0 0 0 0 0 0 0 0 0 0 0 1 1 1 0 0 0 0 0 0 0 0 0 0 0 0
5 5 6 8 10 11 11 10 8 5 4 4 4 4 3 1 0 0 0 0 0 0 0 0 0 0 0 0 1 2 2 1 1 1 1 1 1 0 0 0 0 0 0
7 7 10 12 14 15 15 14 12 10 8 8 6 5 3 1 0 0 0 0 0 0 0 0 0 0 0 0 1 3 3 3 2 2 2 2 2 1 0 0 0 0 0
7 8 10 14 17 18 17 16 16 14 12 10 8 5 3 1 0 0 0 0 0 0 0 0 0 0 0 0 1 2 3 3 3 3 3 3 3 2 1 1 0 0 0
9 9 10 13 17 18 17 17 18 17 14 9 7 5 3 1 1 0 0 0 0 0 0 0 0 0 0 0 1 3 3 3 3 2 2 2 2 1 0 0 0 0 0
9 10 9 11 15 17 17 18 19 17 13 11 8 6 4 3 2 1 0 0 0 0 1 1 1 1 1 2 3 4 4 3 2 1 1 1 1 0 0 0 0 0 0
7 8 8 9 13 17 18 19 19 16 14 13 11 9 7 6 5 3 2 1 0 0 1 2 2 3 3 4 5 5 5 5 3 2 1 1 0 0 0 0 0 0 0
4 6 7 8 11 15 18 19 17 15 14 13 11 10 10 10 9 6 3 1 0 1 2 3 3 4 6 6 5 5 6 6 4 4 3 2 1 1 1 0 0 0 0
3 5 6 8 10 14 17 17 14 13 14 12 10 10 10 11 10 7 4 2 2 2 3 4 4 5 7 7 6 6 7 6 5 5 5 4 3 2 2 1 1 0 0
2 3 5 8 11 14 16 15 14 14 14 14 14 13 12 11 9 7 4 4 4 4 4 5 5 6 7 7 7 8 9 7 6 6 6 5 4 3 2 2 1 0 0
0 1 4 8 14 16 16 15 15 16 17 18 17 16 16 14 10 8 6 6 7 6 6 7 7 7 7 6 5 7 10 9 8 6 5 4 3 3 2 1 1 0 0
2 2 4 10 15 17 18 19 19 18 19 19 18 18 19 17 13 10 9 9 10 9 9 9 10 9 8 5 3 4 8 9 8 6 4 3 3 3 3 2 1 1 1
6 5 7 11 16 18 19 21 21 19 18 19 18 17 18 19 16 14 12 12 13 13 12 12 11 11 10 6 2 1 4 7 7 6 5 4 3 3 3 3 3 2 2
11 10 10 13 16 17 20 22 20 17 17 18 17 17 18 19 18 17 16 16 15 15 15 13 11 11 10 6 2 1 4 6 6 5 4 3 3 3 3 3 3 3 3
15 15 15 16 17 18 20 21 20 18 18 19 18 18 18 18 18 18 19 17 16 15 15 13 10 9 8 5 2 2 4 6 6 5 3 2 2 2 2 3 3 3 3
18 19 20 20 20 20 21 22 21 20 20 20 19 17 16 16 16 17 17 15 13 12 12 10 8 7 6 5 2 2 4 5 4 4 3 2 1 1 1 1 2 2 2
20 20 21 21 21 21 21 21 19 19 20 20 19 16 15 14 13 14 14 12 11 10 8 6 6 6 5 3 1 1 1 2 2 3 3 2 1 0 0 0 1 1 1
21 19 19 18 17 17 17 16 15 16 18 20 19 18 14 12 11 12 12 11 10 8 6 6 7 8 6 3 1 0 0 0 1 1 1 1 0 0 0 0 0 0 0
17 17 17 16 14 13 14 13 13 14 17 19 19 18 14 11 10 11 12 11 9 8 7 7 7 8 8 5 2 0 0 0 0 0 0 0 0 0 0 0 0 0 0
12 14 16 16 15 15 15 16 15 15 16 17 18 17 15 12 10 9 9 8 7 6 7 7 7 8 8 6 3 0 0 0 0 0 0 0 0 0 0 0 0 0 0
11 13 16 16 16 17 18 18 16 16 17 17 17 18 17 13 9 7 6 6 5 5 6 7 7 7 7 5 2 0 0 0 0 0 0 0 0 0 0 0 0 0 0

GEFSMW_con_prob3kmehi_288.txt.gz
EHI
10 8 6 3 2 3 8 14 19 21 18 13 9 6 4 2 0 0 1 1 0 0 0 0 0 1 1 1 1 2 2 1 0 0 0 0 0 0 0 0 0 0 0
13 12 9 5 4 5 9 15 22 25 22 17 12 9 6 3 1 0 1 2 1 0 0 0 0 1 2 2 1 1 2 2 1 0 0 0 0 0 0 0 0 0 0
13 14 13 10 7 8 9 13 23 27 25 20 15 12 9 5 2 1 1 2 2 1 1 1 0 0 1 2 2 1 2 2 1 1 1 1 0 0 0 0 0 0 0
10 12 14 12 10 8 7 10 19 26 25 21 16 13 11 7 4 2 1 2 2 2 2 2 1 1 2 2 3 3 3 3 3 3 3 2 2 1 1 0 0 0 0
10 11 13 13 10 6 5 10 18 25 26 22 18 16 13 8 5 3 3 2 2 2 3 3 3 3 3 3 3 3 4 4 5 4 4 4 5 4 3 1 1 2 1
12 14 15 15 12 8 8 14 23 28 28 24 20 19 17 12 7 5 4 3 2 1 2 3 3 3 4 3 3 4 4 4 4 4 4 5 6 6 5 3 3 3 3
12 14 17 18 16 15 15 20 28 32 30 27 23 21 19 16 12 7 4 2 1 0 1 2 3 3 3 4 4 5 4 4 5 4 4 5 6 6 5 4 3 3 3
8 12 16 18 18 19 21 25 32 35 33 30 27 24 20 17 14 10 6 2 1 1 1 2 3 3 4 5 6 7 7 7 7 6 5 5 5 4 4 3 3 3 2
4 8 13 16 18 20 23 26 32 36 35 33 30 26 21 17 16 14 9 4 3 3 3 4 4 4 4 6 8 8 9 9 8 8 7 6 5 4 3 3 3 2 1
3 6 12 17 20 23 24 26 30 34 35 34 32 27 21 18 17 16 13 8 6 5 6 7 7 7 6 7 8 8 9 10 10 9 9 8 7 5 4 3 2 1 1
4 7 13 20 23 24 26 27 29 32 35 38 36 31 25 19 16 15 15 12 10 10 11 12 13 12 11 10 9 9 9 10 12 12 11 10 9 6 5 4 3 3 4
8 9 13 20 26 27 27 29 29 29 33 37 37 34 30 24 19 16 15 14 14 14 15 17 17 17 15 13 12 11 11 12 13 14 14 12 10 7 6 6 6 6 7
14 12 14 20 27 30 30 30 29 26 28 31 32 32 32 30 26 21 18 16 15 15 16 18 19 19 19 18 16 15 15 14 15 16 16 14 11 9 7 6 6 7 7
21 19 20 24 28 32 33 32 29 24 25 28 30 33 34 34 31 27 22 18 18 18 18 18 19 21 22 21 19 18 18 18 18 18 17 14 12 9 7 6 6 6 6
27 28 29 30 31 33 35 34 30 27 29 31 32 34 35 34 33 30 25 23 22 22 21 19 19 21 22 20 18 17 17 17 18 18 17 15 12 9 6 5 5 6 6
30 32 32 33 34 37 39 38 36 35 38 38 36 35 35 33 32 29 28 27 27 26 24 20 18 19 20 17 13 12 13 15 17 19 19 16 12 9 6 3 2 3 4
30 30 29 30 33 37 41 41 42 44 45 43 40 38 35 32 29 28 29 28 27 26 24 21 19 19 19 15 9 8 11 14 18 21 20 16 11 9 8 5 3 3 3
27 27 26 26 29 35 40 43 44 45 46 44 43 41 37 33 31 30 29 27 24 23 22 20 20 21 20 13 6 6 12 17 19 20 19 17 13 10 9 8 7 6 5
25 25 25 25 27 32 39 43 43 42 43 43 43 41 36 33 33 31 28 24 22 21 20 19 20 21 18 11 3 5 14 20 20 19 18 16 14 10 7 9 10 8 7
26 26 28 29 30 33 37 40 41 40 40 40 40 37 33 31 30 28 24 22 22 21 18 17 17 18 16 9 2 5 14 20 20 19 18 14 10 6 4 6 8 8 7
25 28 32 35 36 36 36 37 38 39 39 37 35 33 30 28 27 26 24 22 22 20 17 16 16 16 13 7 2 3 9 14 16 17 16 11 6 2 1 2 5 6 5
24 28 34 39 41 39 38 39 39 39 39 37 34 30 27 25 25 25 24 23 22 19 17 16 15 13 10 7 3 2 3 6 10 11 11 8 3 0 0 1 2 2 1
25 28 33 37 40 40 40 41 40 38 37 36 32 27 26 26 25 24 24 23 22 19 16 15 13 11 9 6 3 1 0 2 5 6 5 3 1 0 0 0 0 0 1
27 29 31 34 36 38 38 38 39 38 36 33 28 26 26 26 26 25 23 23 21 18 14 13 11 10 8 7 5 3 2 2 4 4 2 1 0 0 0 0 0 0 1
29 30 32 33 34 34 34 34 36 37 35 31 27 25 24 25 26 24 21 19 17 14 11 10 9 9 8 7 6 5 4 4 4 5 3 2 1 1 2 1 0 0 1
33 33 33 33 33 33 32 33 34 34 34 32 28 24 23 25 25 22 18 13 10 8 7 7 8 8 7 6 4 4 4 4 3 4 5 4 3 2 3 2 1 0 0

GEFSMW_con_prob3kmehi_294.txt.gz
EHI
17 16 14 13 17 26 33 34 33 33 31 29 27 24 21 17 14 13 13 13 10 7 6 4 5 6 6 5 4 4 5 5 4 2 3 6 10 13 13 12 13 13 11
19 20 19 18 22 32 37 36 35 34 32 30 29 27 23 17 13 13 15 13 10 8 6 6 7 7 8 7 5 4 4 4 4 3 3 4 7 9 10 11 13 13 11
24 27 27 26 29 36 41 40 40 39 35 31 28 28 26 20 15 16 18 14 11 9 9 11 11 9 8 8 7 6 4 4 3 3 3 2 4 5 6 8 10 12 13
32 36 37 35 33 37 42 45 47 46 39 32 27 26 26 22 18 20 22 19 13 11 13 14 13 11 9 7 7 6 5 4 3 3 3 3 3 4 4 6 8 11 12
39 42 43 40 36 37 44 52 56 52 44 36 29 26 24 21 20 23 25 22 17 15 15 14 13 11 9 6 5 4 4 4 4 3 4 4 4 4 6 7 8 9 10
35 40 45 44 39 38 46 57 62 58 49 40 34 31 27 24 25 28 27 23 19 18 18 16 15 12 8 5 4 3 4 4 4 4 4 4 4 5 6 6 6 7 7
29 37 48 49 43 42 50 60 64 61 52 44 41 38 34 31 31 32 30 24 20 22 24 23 22 17 10 6 6 5 5 5 5 5 4 4 5 6 6 6 7 7 6
25 36 48 50 45 45 52 61 63 61 55 50 47 44 40 35 32 29 27 24 20 23 29 31 28 22 14 11 11 10 8 8 8 7 7 6 6 6 7 8 9 8 7
20 30 43 48 46 46 52 58 61 61 58 54 51 48 44 39 32 25 22 22 20 21 28 32 29 24 20 18 17 15 14 13 12 11 10 10 10 9 10 10 11 9 7
13 21 35 43 44 44 49 54 58 61 59 54 50 49 48 43 35 27 24 25 24 23 27 30 29 26 24 24 23 21 19 17 16 15 15 14 12 11 12 13 12 10 7
10 15 28 40 40 38 42 49 54 58 57 53 49 49 49 46 41 35 32 32 29 28 30 32 31 29 27 27 27 24 21 20 20 19 18 16 15 14 13 13 13 11 9
12 15 27 39 40 38 40 44 49 54 56 54 52 51 51 49 46 42 41 39 36 32 32 33 33 31 29 29 28 26 23 23 23 22 22 19 17 16 14 13 13 12 10
19 22 34 45 47 46 45 44 45 49 53 54 54 54 55 53 49 46 45 44 40 35 33 32 32 31 30 29 29 28 27 26 25 25 24 22 20 18 15 12 12 11 9
30 34 45 53 55 54 53 49 46 46 51 54 55 57 58 57 52 48 46 45 42 38 35 33 32 31 28 27 27 28 27 27 27 26 25 23 21 18 14 10 9 9 8
39 44 51 57 60 59 58 54 50 48 52 56 57 57 58 57 53 48 46 45 41 37 35 33 31 29 25 21 22 24 24 24 25 26 26 23 20 15 11 7 6 6 7
45 47 51 55 59 60 58 56 52 50 53 56 56 56 56 54 50 46 45 43 39 35 33 31 29 26 22 18 17 20 21 21 24 26 26 23 18 12 8 5 4 4 5
49 49 48 49 54 56 55 54 53 54 55 56 56 56 55 53 50 46 44 42 39 34 30 29 27 25 23 18 15 16 19 21 24 25 25 22 17 12 10 7 6 6 5
49 47 43 41 44 49 52 52 55 58 58 58 56 55 54 53 51 49 46 45 42 37 32 29 27 25 22 18 13 13 17 22 25 26 26 24 19 14 10 10 11 10 8
43 42 39 36 40 46 51 52 55 58 58 57 56 55 54 53 51 50 49 47 45 40 34 29 25 23 20 14 9 9 16 22 26 27 26 23 18 12 8 10 14 13 9
37 38 38 38 43 50 52 52 53 55 56 55 55 55 54 53 51 50 48 47 44 38 32 27 23 21 18 13 7 7 15 21 23 25 24 19 13 8 5 8 11 10 8
35 38 40 42 47 50 51 50 51 53 54 55 56 56 55 52 49 47 45 43 39 34 30 26 23 20 17 14 7 6 11 15 17 18 19 15 8 3 3 5 6 6 5
35 38 42 44 46 46 46 48 50 52 53 54 55 56 52 47 45 44 42 40 37 32 28 25 24 21 18 14 7 3 5 8 10 12 12 10 5 1 1 2 3 3 3
34 37 41 42 42 42 42 45 47 50 51 52 52 51 48 45 43 42 40 38 35 30 26 24 23 20 18 14 8 3 1 3 6 8 7 5 3 1 1 1 2 3 3
33 35 38 38 37 37 39 41 45 48 49 49 47 46 44 44 43 42 38 34 31 29 26 23 21 18 16 13 9 5 3 3 4 6 5 3 2 1 2 2 2 3 3
34 35 37 37 36 36 37 41 46 48 48 46 43 40 38 38 39 37 30 25 23 22 21 19 17 15 12 10 9 8 8 6 5 6 5 4 3 3 3 3 3 4 4
36 36 37 37 37 36 38 42 46 48 46 43 39 34 32 33 34 30 22 16 14 13 13 14 14 11 7 6 7 9 10 8 6 6 6 6 5 4 3 3 4 5 5